Jackson, TN

11:03 AM CST on December 07, 2019 (GMT -0600)
McKellar-Sipes Regional

Weather History for KMKL - November, 2019

Change the Weather History Date:

Thursday, November 21, 2019

  Actual Average Record
Temperature  
Mean Temperature 68 °F 48 °F  
Max Temperature 73 °F 59 °F 74 °F (1990)
Min Temperature 64 °F 37 °F 18 °F (1964)
Cooling Degree Days 4 0  
Month to date cooling degree days 0 2  
Year to date cooling degree days 1948 1693  
Growing Degree Days 18 (Base 50)    
Moisture  
Dew Point 45 °F    
Average Humidity 41    
Maximum Humidity 54    
Minimum Humidity 31    
Precipitation  
Precipitation 0.03 in 0.18 in 2.13 in (2011)
Month to date precipitation 1.48 3.26  
Year to date precipitation 58.22 46.28  
Sea Level Pressure  
Sea Level Pressure 30.09 in    
Wind  
Wind Speed 7 mph ()    
Max Wind Speed 21 mph    
Max Gust Speed 30 mph    
Visibility 10.0 miles    
Events      
T = Trace of Precipitation, MM = Missing Value Source: Averaged Metar Reports

Daily Weather History Graph

Daily Weather History Graph

Search for Another Location

Airport or City:

Astronomy

Nov. 21, 2019 Rise Set
Actual Time 6:37 AM CST 4:45 PM CST
Civil Twilight 6:09 AM CST 5:13 PM CST
Nautical Twilight 5:38 AM CST 5:44 PM CST
Astronomical Twilight 5:08 AM CST 6:14 PM CST
Moon 12:48 AM CST (11/21) 2:00 PM CST (11/21)
Length of Visible Light 11h 03m
Length of Day
10h 08m
Waning Crescent, 29% of the Moon is Illuminated
Nov 21
Waning Crescent
Nov 26
New
Dec 4
First Quarter
Dec 11
Full
Dec 18
Last Quarter

Hourly Weather History & Observations

Time (CST) Temp. Dew Point Humidity Pressure Visibility Wind Dir Wind Speed Gust Speed Precip Events Conditions
12:53 AM 64.9 °F 37.0 °F 36% 30.14 in 10.0 mi ESE 4.6 mph - N/A   Clear
1:53 AM 66.0 °F 37.0 °F 34% 30.14 in 10.0 mi SE 4.6 mph - N/A   Clear
2:53 AM 66.9 °F 37.9 °F 34% 30.14 in 10.0 mi South 4.6 mph - N/A   Clear
3:53 AM 70.0 °F 37.9 °F 31% 30.13 in 10.0 mi South 10.4 mph - N/A   Clear
4:53 AM 68.0 °F 37.9 °F 33% 30.13 in 10.0 mi South 9.2 mph - N/A   Clear
5:53 AM 70.0 °F 37.9 °F 31% 30.12 in 10.0 mi South 11.5 mph - N/A   Clear
6:53 AM 68.0 °F 39.0 °F 35% 30.15 in 10.0 mi SW 6.9 mph - N/A   Scattered Clouds
7:53 AM 69.1 °F 39.9 °F 35% 30.14 in 10.0 mi South 11.5 mph - 0.00 in   Mostly Cloudy
8:53 AM 71.1 °F 41.0 °F 34% 30.16 in 10.0 mi South 11.5 mph - N/A   Mostly Cloudy
9:53 AM 71.1 °F 41.0 °F 34% 30.15 in 10.0 mi South 12.7 mph 23.0 mph N/A   Overcast
10:53 AM 73.9 °F 42.1 °F 32% 30.14 in 10.0 mi SSW 15.0 mph 21.9 mph N/A   Overcast
11:53 AM 73.9 °F 45.0 °F 35% 30.10 in 10.0 mi SSW 11.5 mph - N/A   Overcast
12:53 PM 70.0 °F 48.9 °F 47% 30.09 in 10.0 mi South 8.1 mph - 0.00 in   Overcast
1:53 PM 69.1 °F 52.0 °F 54% 30.08 in 10.0 mi South 6.9 mph - 0.03 in   Overcast
2:53 PM 70.0 °F 52.0 °F 53% 30.06 in 10.0 mi South 6.9 mph - N/A   Overcast
3:53 PM 70.0 °F 51.1 °F 51% 30.06 in 10.0 mi South 9.2 mph - N/A   Overcast
4:53 PM 70.0 °F 50.0 °F 49% 30.06 in 10.0 mi South 8.1 mph - N/A   Overcast
5:48 PM 69.8 °F 50.0 °F 49% 30.07 in 10.0 mi SSE 9.2 mph - N/A   Overcast
5:53 PM 70.0 °F 50.0 °F 49% 30.06 in 10.0 mi South 5.8 mph - N/A   Overcast
6:53 PM 71.1 °F 48.9 °F 45% 30.06 in 10.0 mi South 9.2 mph - N/A   Overcast
7:53 PM 71.1 °F 48.0 °F 44% 30.05 in 10.0 mi South 6.9 mph - N/A   Overcast
9:53 PM 72.0 °F 48.9 °F 44% 30.02 in 10.0 mi South 10.4 mph - N/A   Overcast
10:53 PM 71.1 °F 51.1 °F 49% 30.01 in 10.0 mi SSW 11.5 mph - N/A   Overcast
11:53 PM 71.1 °F 52.0 °F 51% 29.99 in 10.0 mi South 13.8 mph - N/A   Overcast